contact:dominique.lefevre@mio.osupytheas.fr, maurice.libes@osupytheas.fr, didier.mallarino@osupytheas.fr
Project:EMSO http://www.emso-fr.org/EMSO-France
Depth: 2436.0 m
Title:EMSO Ligure Ouest : Data MII capteur AQUADOPP
Date,Latitude,Longitude,X_East,Y_North,Z_Up,Amplitude_X,Amplitude_Y,Amplitude_Z,Batterie,SoundSpeed,Heading,Pitch,Roll,Pressure,TIS,Speed,Direction
, degrees North, degrees East, m.s-1, m.s-1,m.s-1, 1, 1, 1, Volt, m.s-1, degree, degree, degree, dbar, degree_C, m.s-1, degree
2022-09-27T00:04:03,42.805,6.029,-0.031,-0.016,-0.017,100.0,100.0,100.0,13.4,1505.2,327.0,-0.8,1.8,2470.961,13.29,0.034,242.7
2022-09-27T00:07:03,42.805,6.029,-0.007,-0.038,0.004,99.0,101.0,100.0,13.4,1505.2,324.1,-0.7,1.8,2470.968,13.29,0.038,190.4
2022-09-27T00:10:03,42.805,6.029,-0.022,-0.003,0.012,100.0,101.0,101.0,13.4,1505.2,318.9,-0.7,1.8,2470.945,13.29,0.022,262.2
2022-09-27T00:13:03,42.805,6.029,-0.028,0.003,0.044,99.0,100.0,99.0,13.4,1505.2,330.6,-0.8,1.8,2470.967,13.29,0.028,276.1
2022-09-27T00:16:03,42.805,6.029,-0.018,-0.014,0.003,99.0,103.0,100.0,13.3,1505.2,328.3,-0.8,1.8,2470.949,13.29,0.022,232.1
2022-09-27T00:19:03,42.805,6.029,0.0,-0.02,0.0,99.0,102.0,99.0,13.4,1505.2,331.9,-0.8,1.8,2470.918,13.29,0.02,180.0
2022-09-27T00:22:03,42.805,6.029,-0.035,-0.018,-0.006,101.0,100.0,99.0,13.3,1505.2,318.2,-0.8,1.8,2470.929,13.29,0.039,242.8
2022-09-27T00:25:03,42.805,6.029,-0.008,-0.025,-0.001,97.0,101.0,101.0,13.3,1505.2,323.5,-0.7,1.8,2470.906,13.29,0.026,197.7
2022-09-27T00:28:03,42.805,6.029,0.0,-0.006,-0.005,100.0,100.0,100.0,13.4,1505.2,330.4,-0.8,1.8,2470.907,13.29,0.006,180.0
2022-09-27T00:31:03,42.805,6.029,-0.011,0.0,0.024,99.0,102.0,102.0,13.3,1505.2,333.4,-0.8,1.8,2470.927,13.3,0.011,270.0
2022-09-27T00:34:03,42.805,6.029,-0.009,-0.02,-0.015,101.0,100.0,100.0,13.3,1505.2,324.1,-0.8,1.8,2470.904,13.3,0.021,204.2
2022-09-27T00:37:03,42.805,6.029,0.001,-0.017,0.008,100.0,101.0,100.0,13.3,1505.2,325.6,-0.8,1.8,2470.909,13.29,0.017,176.6
2022-09-27T00:40:03,42.805,6.029,-0.024,-0.013,0.0,97.0,101.0,101.0,13.4,1505.2,321.9,-0.8,1.8,2470.898,13.29,0.027,241.6
2022-09-27T00:43:03,42.805,6.029,-0.014,-0.035,-0.039,100.0,104.0,100.0,13.3,1505.2,321.0,-0.8,1.8,2470.896,13.29,0.037,201.8
2022-09-27T00:46:03,42.805,6.029,-0.026,-0.029,-0.005,100.0,100.0,100.0,13.4,1505.2,321.7,-0.7,1.8,2470.904,13.29,0.038,221.9
2022-09-27T00:49:03,42.805,6.029,-0.003,-0.036,-0.009,98.0,100.0,101.0,13.4,1505.2,333.4,-0.8,1.8,2470.905,13.29,0.036,184.8
2022-09-27T00:52:03,42.805,6.029,-0.02,-0.009,0.027,99.0,101.0,98.0,13.4,1505.2,315.4,-0.8,1.8,2470.918,13.29,0.021,245.8
2022-09-27T00:55:03,42.805,6.029,-0.015,0.007,0.026,100.0,100.0,100.0,13.3,1505.2,328.6,-0.7,1.8,2470.864,13.29,0.016,295.0
2022-09-27T00:58:03,42.805,6.029,0.0,-0.007,0.002,100.0,99.0,100.0,13.4,1505.2,327.7,-0.8,1.8,2470.855,13.29,0.007,180.0
2022-09-27T01:04:03,42.805,6.029,-0.029,-0.007,0.0,101.0,101.0,101.0,13.3,1505.2,318.4,-0.8,1.8,2470.926,13.29,0.029,256.4
2022-09-27T01:07:03,42.805,6.029,0.004,0.004,0.021,100.0,100.0,104.0,13.4,1505.2,319.4,-0.8,1.8,2470.896,13.29,0.005,45.0
2022-09-27T01:10:03,42.805,6.029,0.01,-0.028,0.029,101.0,99.0,99.0,13.3,1505.2,335.2,-0.7,1.8,2470.874,13.29,0.029,160.4
2022-09-27T01:13:03,42.805,6.029,0.0,-0.012,0.0,100.0,101.0,100.0,13.4,1505.2,332.5,-0.8,1.8,2470.911,13.29,0.012,180.0
2022-09-27T01:16:03,42.805,6.029,-0.013,-0.014,-0.006,101.0,100.0,99.0,13.3,1505.2,323.8,-0.8,1.8,2470.915,13.29,0.019,222.9
2022-09-27T01:19:03,42.805,6.029,0.027,-0.033,0.012,101.0,100.0,99.0,13.3,1505.2,317.4,-0.7,1.8,2470.85,13.29,0.042,140.7
2022-09-27T01:22:03,42.805,6.029,-0.04,-0.016,-0.005,101.0,101.0,99.0,13.3,1505.2,318.3,-0.8,1.8,2470.868,13.29,0.043,248.2
2022-09-27T01:25:03,42.805,6.029,-0.03,-0.027,-0.004,102.0,101.0,99.0,13.3,1505.2,323.4,-0.8,1.8,2470.885,13.29,0.04,228.0
2022-09-27T01:28:03,42.805,6.029,-0.017,-0.017,0.008,100.0,101.0,101.0,13.3,1505.2,330.9,-0.8,1.8,2470.894,13.29,0.024,225.0
2022-09-27T01:31:03,42.805,6.029,-0.019,-0.036,-0.024,102.0,99.0,99.0,13.4,1505.2,327.8,-0.7,1.8,2470.865,13.29,0.04,207.8
2022-09-27T01:34:03,42.805,6.029,-0.015,-0.015,-0.011,99.0,101.0,99.0,13.4,1505.2,331.0,-0.8,1.8,2470.891,13.3,0.021,225.0
2022-09-27T01:37:03,42.805,6.029,-0.001,-0.018,0.019,99.0,100.0,99.0,13.4,1505.2,322.7,-0.8,1.8,2470.816,13.3,0.018,183.2
2022-09-27T01:40:03,42.805,6.029,-0.019,-0.038,-0.01,99.0,102.0,100.0,13.3,1505.2,325.8,-0.7,1.8,2470.817,13.3,0.042,206.6
2022-09-27T01:43:03,42.805,6.029,-0.001,-0.037,-0.03,100.0,103.0,100.0,13.3,1505.2,328.2,-0.8,1.8,2470.877,13.3,0.037,181.5
2022-09-27T01:46:03,42.805,6.029,-0.021,-0.011,0.014,101.0,101.0,100.0,13.4,1505.2,327.2,-0.7,1.8,2470.84,13.3,0.023,242.4
2022-09-27T01:49:03,42.805,6.029,-0.023,-0.008,0.008,101.0,100.0,98.0,13.4,1505.2,329.3,-0.7,1.8,2470.824,13.3,0.024,250.8
2022-09-27T01:52:03,42.805,6.029,-0.017,-0.016,-0.018,99.0,101.0,102.0,13.4,1505.2,332.2,-0.8,1.8,2470.862,13.3,0.023,226.7
2022-09-27T01:55:03,42.805,6.029,-0.025,-0.002,0.025,102.0,99.0,100.0,13.4,1505.2,329.7,-0.8,1.8,2470.833,13.3,0.025,265.4
2022-09-27T01:58:03,42.805,6.029,-0.035,0.001,0.033,101.0,101.0,98.0,13.4,1505.2,321.8,-0.8,1.8,2470.844,13.3,0.035,271.6
2022-09-27T02:04:03,42.805,6.029,-0.031,-0.012,0.013,100.0,100.0,100.0,13.4,1505.2,323.8,-0.8,1.8,2470.905,13.29,0.033,248.8
2022-09-27T02:07:03,42.805,6.029,0.004,-0.02,0.003,100.0,100.0,99.0,13.4,1505.2,318.6,-0.8,1.8,2470.904,13.29,0.02,168.7
2022-09-27T02:10:03,42.805,6.029,-0.02,-0.016,-0.009,100.0,101.0,100.0,13.3,1505.2,329.0,-0.8,1.8,2470.9,13.29,0.025,231.3
2022-09-27T02:13:03,42.805,6.029,-0.005,-0.02,0.026,99.0,100.0,99.0,13.3,1505.2,330.6,-0.8,1.8,2470.882,13.29,0.02,194.0
2022-09-27T02:16:03,42.805,6.029,-0.023,-0.025,-0.008,101.0,100.0,99.0,13.4,1505.2,327.4,-0.8,1.8,2470.887,13.29,0.033,222.6
2022-09-27T02:19:03,42.805,6.029,-0.02,-0.029,-0.001,100.0,103.0,99.0,13.4,1505.2,321.8,-0.8,1.8,2470.891,13.29,0.035,214.6
2022-09-27T02:22:03,42.805,6.029,-0.002,0.002,0.037,103.0,100.0,99.0,13.4,1505.2,321.3,-0.8,1.8,2470.846,13.29,0.002,315.0
2022-09-27T02:25:03,42.805,6.029,-0.038,0.003,0.0,99.0,102.0,99.0,13.4,1505.2,325.7,-0.7,1.9,2470.877,13.29,0.038,274.5
2022-09-27T02:28:03,42.805,6.029,-0.041,-0.014,0.017,99.0,99.0,100.0,13.3,1505.2,316.2,-0.7,1.8,2470.83,13.29,0.043,251.1
2022-09-27T02:31:03,42.805,6.029,-0.009,-0.042,0.004,99.0,99.0,101.0,13.4,1505.2,327.3,-0.7,1.8,2470.854,13.29,0.042,192.1
2022-09-27T02:34:03,42.805,6.029,-0.008,-0.03,-0.009,102.0,99.0,99.0,13.4,1505.2,332.2,-0.8,1.8,2470.826,13.29,0.031,194.9
2022-09-27T02:37:03,42.805,6.029,-0.001,0.003,0.009,101.0,101.0,101.0,13.4,1505.2,323.0,-0.8,1.8,2470.87,13.29,0.003,341.6
2022-09-27T02:40:03,42.805,6.029,-0.019,-0.016,-0.014,101.0,100.0,99.0,13.4,1505.2,326.1,-0.7,1.8,2470.86,13.29,0.024,229.9
2022-09-27T02:43:03,42.805,6.029,-0.024,-0.018,-0.011,100.0,101.0,99.0,13.4,1505.2,330.5,-0.8,1.8,2470.847,13.29,0.03,233.1
2022-09-27T02:46:03,42.805,6.029,-0.012,0.004,0.014,99.0,100.0,99.0,13.3,1505.2,331.6,-0.7,1.8,2470.829,13.29,0.012,288.4
2022-09-27T02:49:03,42.805,6.029,0.011,-0.053,0.01,100.0,101.0,100.0,13.4,1505.2,329.6,-0.8,1.8,2470.883,13.29,0.054,168.3
2022-09-27T02:52:03,42.805,6.029,-0.008,-0.018,0.022,100.0,102.0,99.0,13.3,1505.2,325.8,-0.7,1.8,2470.875,13.29,0.019,204.0
2022-09-27T02:55:03,42.805,6.029,-0.019,-0.009,0.009,100.0,100.0,100.0,13.4,1505.2,327.7,-0.8,1.8,2470.851,13.29,0.021,244.7
2022-09-27T02:58:03,42.805,6.029,-0.003,0.006,0.037,99.0,101.0,100.0,13.3,1505.2,326.8,-0.8,1.8,2470.88,13.29,0.006,333.4
2022-09-27T03:04:03,42.805,6.029,-0.003,-0.025,0.012,101.0,99.0,100.0,13.4,1505.2,324.6,-0.8,1.8,2470.868,13.29,0.025,186.8
2022-09-27T03:07:03,42.805,6.029,-0.017,-0.014,-0.007,100.0,99.0,100.0,13.3,1505.2,317.0,-0.8,1.8,2470.91,13.29,0.022,230.5
2022-09-27T03:10:03,42.805,6.029,-0.021,-0.012,0.001,100.0,100.0,100.0,13.4,1505.2,331.2,-0.8,1.8,2470.85,13.29,0.024,240.3
2022-09-27T03:13:03,42.805,6.029,-0.029,-0.023,-0.016,100.0,101.0,99.0,13.4,1505.2,330.1,-0.8,1.8,2470.915,13.29,0.037,231.6
2022-09-27T03:16:03,42.805,6.029,-0.003,-0.017,0.018,100.0,101.0,99.0,13.3,1505.2,318.6,-0.8,1.8,2470.857,13.29,0.017,190.0
2022-09-27T03:19:03,42.805,6.029,0.007,0.002,0.014,100.0,100.0,100.0,13.4,1505.2,323.6,-0.8,1.8,2470.859,13.29,0.007,74.1
2022-09-27T03:22:03,42.805,6.029,-0.018,-0.013,0.017,104.0,101.0,100.0,13.3,1505.2,324.1,-0.8,1.8,2470.851,13.29,0.022,234.2
2022-09-27T03:25:03,42.805,6.029,0.005,-0.018,-0.038,100.0,100.0,101.0,13.4,1505.2,326.8,-0.8,1.8,2470.922,13.29,0.018,164.5
2022-09-27T03:28:03,42.805,6.029,-0.027,-0.008,0.025,99.0,100.0,100.0,13.3,1505.2,323.0,-0.7,1.8,2470.865,13.29,0.028,253.5
2022-09-27T03:31:03,42.805,6.029,0.002,-0.022,0.006,101.0,100.0,99.0,13.3,1505.2,322.8,-0.8,1.8,2470.856,13.3,0.022,174.8
2022-09-27T03:34:03,42.805,6.029,-0.026,-0.009,0.001,101.0,100.0,102.0,13.3,1505.2,327.0,-0.7,1.8,2470.875,13.3,0.027,250.9
2022-09-27T03:37:03,42.805,6.029,-0.023,-0.011,-0.006,100.0,100.0,99.0,13.4,1505.2,317.1,-0.8,1.8,2470.865,13.3,0.025,244.4
2022-09-27T03:40:03,42.805,6.029,0.006,-0.001,0.037,101.0,100.0,100.0,13.4,1505.2,333.4,-0.8,1.8,2470.851,13.3,0.006,99.5
2022-09-27T03:43:03,42.805,6.029,-0.019,-0.019,0.002,103.0,102.0,100.0,13.3,1505.2,330.3,-0.7,1.8,2470.877,13.3,0.026,225.0
2022-09-27T03:46:03,42.805,6.029,-0.014,-0.006,0.023,101.0,100.0,100.0,13.3,1505.2,320.6,-0.8,1.8,2470.882,13.3,0.015,246.8
2022-09-27T03:49:03,42.805,6.029,-0.019,-0.005,0.025,100.0,100.0,100.0,13.3,1505.2,328.4,-0.8,1.8,2470.893,13.3,0.019,255.3
2022-09-27T03:52:03,42.805,6.029,-0.03,0.0,0.013,100.0,101.0,100.0,13.3,1505.2,323.8,-0.8,1.8,2470.873,13.3,0.03,270.0
2022-09-27T03:55:03,42.805,6.029,0.001,0.0,0.019,100.0,101.0,100.0,13.4,1505.2,330.9,-0.7,1.8,2470.919,13.3,0.001,90.0
2022-09-27T03:58:03,42.805,6.029,-0.001,-0.007,0.015,100.0,101.0,100.0,13.4,1505.2,317.1,-0.8,1.8,2470.869,13.3,0.007,188.1
2022-09-27T04:04:03,42.805,6.029,-0.007,-0.022,-0.054,101.0,100.0,100.0,13.3,1505.2,327.9,-0.8,1.8,2470.905,13.29,0.023,197.6
2022-09-27T04:07:03,42.805,6.029,-0.023,-0.027,-0.009,100.0,101.0,99.0,13.4,1505.2,324.1,-0.7,1.9,2470.911,13.29,0.035,220.4
2022-09-27T04:10:03,42.805,6.029,-0.016,-0.021,-0.005,100.0,101.0,100.0,13.4,1505.2,323.1,-0.8,1.8,2470.933,13.29,0.026,217.3
2022-09-27T04:13:03,42.805,6.029,0.0,-0.015,0.011,100.0,101.0,99.0,13.3,1505.2,329.0,-0.8,1.8,2470.93,13.3,0.015,180.0
2022-09-27T04:16:03,42.805,6.029,0.0,-0.023,0.007,100.0,100.0,100.0,13.3,1505.2,322.6,-0.8,1.8,2470.89,13.3,0.023,180.0
2022-09-27T04:19:03,42.805,6.029,-0.008,0.001,0.013,101.0,101.0,100.0,13.4,1505.2,330.6,-0.8,1.8,2470.909,13.3,0.008,277.1
2022-09-27T04:22:03,42.805,6.029,-0.013,0.007,0.037,101.0,103.0,98.0,13.4,1505.2,330.3,-0.8,1.8,2470.93,13.3,0.014,298.3
2022-09-27T04:25:03,42.805,6.029,-0.037,0.008,0.027,102.0,101.0,98.0,13.3,1505.2,327.9,-0.7,1.8,2470.888,13.3,0.037,282.2
2022-09-27T04:28:03,42.805,6.029,0.008,-0.004,0.0,100.0,100.0,99.0,13.3,1505.2,320.9,-0.8,1.8,2470.914,13.3,0.008,116.6
2022-09-27T04:31:03,42.805,6.029,-0.009,-0.012,0.032,101.0,100.0,100.0,13.4,1505.2,323.5,-0.7,1.8,2470.901,13.3,0.015,216.9
2022-09-27T04:34:03,42.805,6.029,-0.016,-0.031,-0.017,101.0,101.0,99.0,13.3,1505.2,326.4,-0.8,1.8,2470.91,13.3,0.034,207.3
2022-09-27T04:37:03,42.805,6.029,0.012,-0.009,0.037,101.0,100.0,99.0,13.4,1505.2,330.3,-0.8,1.8,2470.915,13.3,0.015,126.9
2022-09-27T04:40:03,42.805,6.029,-0.016,-0.003,-0.003,101.0,100.0,100.0,13.3,1505.2,328.6,-0.8,1.8,2470.923,13.3,0.016,259.4
2022-09-27T04:43:03,42.805,6.029,-0.02,-0.009,0.017,100.0,102.0,99.0,13.3,1505.2,333.1,-0.8,1.8,2470.92,13.29,0.021,245.8
2022-09-27T04:46:03,42.805,6.029,-0.029,-0.008,-0.001,101.0,100.0,99.0,13.4,1505.2,323.1,-0.8,1.8,2470.967,13.29,0.03,254.6
2022-09-27T04:49:03,42.805,6.029,0.0,-0.03,-0.013,102.0,100.0,100.0,13.4,1505.2,330.2,-0.8,1.8,2470.885,13.29,0.03,180.0
2022-09-27T04:52:03,42.805,6.029,-0.018,-0.002,0.017,101.0,101.0,99.0,13.4,1505.2,331.5,-0.8,1.8,2470.921,13.29,0.018,263.7
2022-09-27T04:55:03,42.805,6.029,0.0,-0.024,0.024,101.0,100.0,100.0,13.4,1505.2,324.6,-0.8,1.8,2470.951,13.29,0.024,180.0
2022-09-27T04:58:03,42.805,6.029,-0.023,-0.036,-0.007,101.0,100.0,100.0,13.4,1505.2,322.8,-0.8,1.8,2470.931,13.29,0.042,212.6
2022-09-27T05:04:03,42.805,6.029,0.007,-0.052,-0.012,101.0,100.0,99.0,13.4,1505.2,323.9,-0.8,1.8,2470.931,13.29,0.052,172.3
2022-09-27T05:07:03,42.805,6.029,-0.011,-0.011,0.001,100.0,99.0,100.0,13.4,1505.2,318.6,-0.8,1.8,2470.943,13.29,0.015,225.0
2022-09-27T05:10:03,42.805,6.029,-0.018,-0.024,0.018,100.0,100.0,99.0,13.4,1505.2,332.8,-0.8,1.8,2470.935,13.29,0.03,216.9
2022-09-27T05:13:03,42.805,6.029,-0.018,-0.022,0.012,100.0,102.0,100.0,13.4,1505.2,324.4,-0.8,1.8,2470.969,13.29,0.028,219.3
2022-09-27T05:16:03,42.805,6.029,0.007,-0.022,0.03,99.0,101.0,100.0,13.4,1505.2,331.0,-0.8,1.8,2470.973,13.29,0.023,162.4
2022-09-27T05:19:03,42.805,6.029,-0.039,-0.025,0.006,101.0,101.0,99.0,13.3,1505.2,322.5,-0.7,1.8,2470.952,13.29,0.046,237.3
2022-09-27T05:22:03,42.805,6.029,-0.041,0.0,-0.011,99.0,100.0,99.0,13.4,1505.2,328.7,-0.8,1.8,2470.958,13.29,0.041,270.0
2022-09-27T05:25:03,42.805,6.029,-0.002,-0.038,-0.037,100.0,103.0,99.0,13.4,1505.2,327.1,-0.7,1.8,2470.963,13.29,0.038,183.0
2022-09-27T05:28:03,42.805,6.029,-0.003,-0.004,0.019,100.0,100.0,101.0,13.4,1505.2,332.5,-0.7,1.9,2470.967,13.29,0.005,216.9
2022-09-27T05:31:03,42.805,6.029,0.009,0.007,0.035,101.0,100.0,99.0,13.3,1505.2,332.5,-0.8,1.8,2470.961,13.29,0.011,52.1
2022-09-27T05:34:03,42.805,6.029,0.004,-0.025,0.021,100.0,99.0,100.0,13.4,1505.2,325.3,-0.8,1.8,2470.944,13.29,0.025,170.9
2022-09-27T05:37:03,42.805,6.029,0.021,-0.022,0.022,101.0,99.0,99.0,13.4,1505.2,318.9,-0.7,1.8,2470.995,13.29,0.03,136.3
2022-09-27T05:40:03,42.805,6.029,-0.007,-0.019,0.018,100.0,100.0,99.0,13.4,1505.2,331.0,-0.8,1.8,2471.004,13.29,0.02,200.2
2022-09-27T05:43:03,42.805,6.029,0.006,-0.027,-0.011,101.0,100.0,98.0,13.4,1505.2,322.7,-0.8,1.8,2470.963,13.29,0.027,167.5
2022-09-27T05:46:03,42.805,6.029,-0.015,-0.014,0.018,99.0,101.0,100.0,13.4,1505.2,329.1,-0.8,1.8,2470.979,13.29,0.02,227.0
2022-09-27T05:49:03,42.805,6.029,-0.023,-0.02,-0.018,99.0,100.0,100.0,13.4,1505.2,320.9,-0.7,1.8,2470.985,13.29,0.03,229.0
2022-09-27T05:52:03,42.805,6.029,-0.005,-0.018,0.022,101.0,99.0,99.0,13.4,1505.2,319.7,-0.8,1.8,2470.947,13.29,0.018,195.5
2022-09-27T05:55:03,42.805,6.029,-0.017,-0.023,0.007,99.0,102.0,101.0,13.4,1505.2,328.8,-0.8,1.8,2470.985,13.29,0.028,216.5
2022-09-27T05:58:03,42.805,6.029,0.004,-0.01,-0.001,100.0,102.0,100.0,13.4,1505.2,323.5,-0.7,1.8,2471.008,13.29,0.01,158.2
2022-09-27T06:04:03,42.805,6.029,0.034,-0.009,0.023,100.0,99.0,99.0,13.4,1505.2,325.0,-0.7,1.9,2471.038,13.29,0.035,104.8
2022-09-27T06:07:03,42.805,6.029,-0.008,-0.042,-0.018,101.0,100.0,99.0,13.3,1505.2,329.9,-0.7,1.8,2471.04,13.29,0.042,190.8
2022-09-27T06:10:03,42.805,6.029,-0.008,-0.006,0.043,100.0,99.0,99.0,13.4,1505.2,318.5,-0.8,1.8,2471.04,13.29,0.01,233.1
2022-09-27T06:13:03,42.805,6.029,-0.031,-0.03,-0.003,100.0,99.0,99.0,13.3,1505.2,326.4,-0.8,1.8,2471.052,13.29,0.043,225.9
2022-09-27T06:16:03,42.805,6.029,-0.004,-0.019,0.025,101.0,100.0,99.0,13.4,1505.2,323.0,-0.8,1.8,2471.03,13.29,0.019,191.9
2022-09-27T06:19:03,42.805,6.029,0.004,-0.029,-0.02,101.0,100.0,100.0,13.3,1505.2,320.9,-0.8,1.8,2471.001,13.29,0.029,172.2
2022-09-27T06:22:03,42.805,6.029,0.004,-0.031,-0.001,98.0,103.0,101.0,13.4,1505.2,328.4,-0.7,1.8,2471.038,13.29,0.031,172.7
2022-09-27T06:25:03,42.805,6.029,-0.01,-0.016,0.004,101.0,101.0,99.0,13.4,1505.2,317.0,-0.7,1.8,2471.012,13.29,0.018,212.0
2022-09-27T06:28:03,42.805,6.029,-0.001,-0.031,-0.039,101.0,101.0,99.0,13.4,1505.2,321.8,-0.8,1.8,2470.998,13.29,0.031,181.8
2022-09-27T06:31:03,42.805,6.029,-0.009,0.003,0.018,100.0,100.0,99.0,13.4,1505.2,333.7,-0.7,1.8,2471.025,13.29,0.009,288.4
2022-09-27T06:34:03,42.805,6.029,-0.033,-0.012,-0.018,103.0,100.0,100.0,13.4,1505.2,327.9,-0.8,1.8,2471.032,13.29,0.035,250.0
2022-09-27T06:37:03,42.805,6.029,-0.007,-0.042,-0.04,101.0,99.0,99.0,13.3,1505.2,327.8,-0.7,1.8,2471.033,13.29,0.042,189.5
2022-09-27T06:40:03,42.805,6.029,-0.014,0.006,0.046,99.0,100.0,99.0,13.4,1505.2,325.9,-0.7,1.8,2471.039,13.29,0.015,293.2
2022-09-27T06:43:03,42.805,6.029,-0.01,-0.022,-0.008,100.0,100.0,99.0,13.3,1505.2,317.9,-0.8,1.8,2471.005,13.29,0.024,204.4
2022-09-27T06:46:03,42.805,6.029,0.014,-0.058,-0.024,100.0,103.0,100.0,13.4,1505.2,323.4,-0.7,1.8,2471.042,13.29,0.059,166.4
2022-09-27T06:49:03,42.805,6.029,-0.014,-0.01,0.004,100.0,100.0,99.0,13.4,1505.2,331.3,-0.8,1.8,2470.993,13.29,0.017,234.5
2022-09-27T06:52:03,42.805,6.029,-0.011,-0.025,0.018,102.0,99.0,100.0,13.3,1505.2,317.0,-0.8,1.8,2471.014,13.29,0.027,203.7
2022-09-27T06:55:03,42.805,6.029,0.01,-0.027,-0.024,99.0,102.0,99.0,13.4,1505.2,316.2,-0.8,1.9,2471.032,13.29,0.028,159.7
2022-09-27T06:58:03,42.805,6.029,-0.019,-0.012,0.02,100.0,98.0,100.0,13.4,1505.2,331.7,-0.8,1.8,2471.027,13.29,0.022,237.7
2022-09-27T07:04:03,42.805,6.029,0.014,-0.018,-0.008,98.0,100.0,99.0,13.4,1505.2,320.1,-0.8,1.8,2471.056,13.29,0.022,142.1
2022-09-27T07:07:03,42.805,6.029,-0.009,-0.024,0.035,99.0,100.0,100.0,13.4,1505.2,317.4,-0.7,1.9,2471.045,13.29,0.025,200.6
2022-09-27T07:10:03,42.805,6.029,0.0,-0.03,0.027,99.0,100.0,99.0,13.3,1505.2,326.1,-0.8,1.9,2471.086,13.29,0.03,180.0
2022-09-27T07:13:03,42.805,6.029,-0.019,0.003,0.011,99.0,99.0,108.0,13.4,1505.2,327.4,-0.8,1.8,2471.053,13.29,0.019,279.0
2022-09-27T07:16:03,42.805,6.029,-0.011,-0.01,0.002,99.0,100.0,99.0,13.4,1505.2,321.4,-0.8,1.8,2471.052,13.29,0.014,227.7
2022-09-27T07:19:03,42.805,6.029,-0.038,-0.031,0.005,101.0,102.0,98.0,13.3,1505.2,323.0,-0.7,1.8,2471.093,13.29,0.049,230.8
2022-09-27T07:22:03,42.805,6.029,-0.02,-0.012,0.039,100.0,100.0,99.0,13.3,1505.2,318.2,-0.7,1.8,2471.056,13.29,0.023,239.0
2022-09-27T07:25:03,42.805,6.029,0.03,-0.045,0.011,101.0,99.0,100.0,13.4,1505.2,320.1,-0.8,1.8,2471.088,13.29,0.054,146.3
2022-09-27T07:28:03,42.805,6.029,-0.02,-0.02,-0.013,100.0,99.0,100.0,13.4,1505.2,320.8,-0.8,1.8,2471.027,13.29,0.028,225.0
2022-09-27T07:31:03,42.805,6.029,-0.042,-0.036,-0.029,99.0,99.0,99.0,13.4,1505.2,328.9,-0.7,1.8,2471.025,13.29,0.055,229.4
2022-09-27T07:34:03,42.805,6.029,-0.014,-0.029,-0.014,100.0,99.0,99.0,13.4,1505.2,327.4,-0.8,1.8,2471.028,13.29,0.032,205.8
2022-09-27T07:37:03,42.805,6.029,-0.013,0.004,0.043,101.0,100.0,98.0,13.4,1505.2,319.8,-0.7,1.8,2471.047,13.29,0.013,287.1
2022-09-27T07:40:03,42.805,6.029,0.005,-0.033,-0.021,100.0,101.0,101.0,13.3,1505.2,318.2,-0.7,1.8,2471.048,13.29,0.033,171.4
2022-09-27T07:43:03,42.805,6.029,-0.035,-0.022,0.002,99.0,101.0,99.0,13.4,1505.2,323.3,-0.8,1.8,2471.047,13.29,0.041,237.8
2022-09-27T07:46:03,42.805,6.029,-0.009,-0.023,0.006,98.0,100.0,100.0,13.4,1505.2,323.1,-0.8,1.9,2471.03,13.29,0.024,201.4
2022-09-27T07:49:03,42.805,6.029,-0.029,0.003,0.017,99.0,100.0,99.0,13.4,1505.2,325.0,-0.8,1.8,2471.062,13.29,0.029,275.9
2022-09-27T07:52:03,42.805,6.029,-0.013,-0.03,-0.03,101.0,102.0,99.0,13.3,1505.2,330.3,-0.7,1.8,2471.046,13.3,0.032,203.4
2022-09-27T07:55:03,42.805,6.029,0.0,-0.003,0.009,100.0,99.0,100.0,13.3,1505.2,328.2,-0.7,1.8,2471.04,13.3,0.003,180.0
2022-09-27T07:58:03,42.805,6.029,-0.019,-0.018,-0.003,100.0,101.0,100.0,13.3,1505.2,330.8,-0.7,1.8,2471.066,13.3,0.026,226.5
2022-09-27T08:04:03,42.805,6.029,-0.019,-0.017,-0.013,99.0,101.0,99.0,13.4,1505.2,317.2,-0.8,1.8,2471.105,13.29,0.025,228.2
2022-09-27T08:07:03,42.805,6.029,-0.017,-0.004,0.006,100.0,100.0,99.0,13.4,1505.2,322.7,-0.8,1.8,2471.043,13.29,0.017,256.8
2022-09-27T08:10:03,42.805,6.029,-0.015,-0.013,0.017,98.0,101.0,99.0,13.4,1505.2,323.4,-0.8,1.8,2471.115,13.29,0.019,229.1
2022-09-27T08:13:03,42.805,6.029,-0.01,-0.022,0.006,99.0,102.0,100.0,13.4,1505.2,320.1,-0.8,1.8,2471.073,13.29,0.024,204.4
2022-09-27T08:16:03,42.805,6.029,-0.004,-0.016,0.015,100.0,102.0,100.0,13.4,1505.2,323.1,-0.7,1.8,2471.091,13.29,0.016,194.0
2022-09-27T08:19:03,42.805,6.029,-0.036,-0.005,-0.001,100.0,99.0,100.0,13.3,1505.2,328.6,-0.8,1.9,2471.048,13.29,0.036,262.1
2022-09-27T08:22:03,42.805,6.029,-0.017,-0.017,-0.01,103.0,99.0,100.0,13.4,1505.2,329.0,-0.8,1.8,2471.033,13.29,0.024,225.0
2022-09-27T08:25:03,42.805,6.029,-0.016,-0.027,-0.002,99.0,101.0,100.0,13.4,1505.2,321.6,-0.8,1.8,2471.065,13.29,0.031,210.7
2022-09-27T08:28:03,42.805,6.029,0.002,-0.03,-0.045,101.0,100.0,105.0,13.4,1505.2,320.5,-0.8,1.8,2471.073,13.29,0.03,176.2
2022-09-27T08:31:03,42.805,6.029,-0.028,-0.017,0.018,100.0,101.0,98.0,13.3,1505.2,319.0,-0.8,1.8,2471.066,13.29,0.032,238.7
2022-09-27T08:34:03,42.805,6.029,-0.007,-0.014,0.001,101.0,99.0,100.0,13.4,1505.2,329.2,-0.7,1.8,2471.046,13.29,0.015,206.6
2022-09-27T08:37:03,42.805,6.029,-0.057,-0.02,-0.04,100.0,100.0,99.0,13.4,1505.2,322.1,-0.7,1.8,2471.059,13.29,0.06,250.7
2022-09-27T08:40:03,42.805,6.029,-0.001,-0.022,0.0,100.0,100.0,99.0,13.3,1505.2,325.2,-0.8,1.7,2471.059,13.29,0.022,182.6
2022-09-27T08:43:03,42.805,6.029,-0.008,-0.039,-0.012,99.0,100.0,98.0,13.4,1505.2,326.6,-0.8,1.8,2471.039,13.29,0.039,191.6
2022-09-27T08:46:03,42.805,6.029,-0.027,-0.019,-0.007,101.0,100.0,100.0,13.4,1505.2,320.1,-0.7,1.8,2471.022,13.3,0.033,234.9
2022-09-27T08:49:03,42.805,6.029,-0.028,-0.02,0.01,98.0,100.0,100.0,13.4,1505.2,329.7,-0.7,1.8,2471.049,13.3,0.034,234.5
2022-09-27T08:52:03,42.805,6.029,-0.021,-0.015,-0.017,99.0,98.0,100.0,13.4,1505.2,324.0,-0.8,1.8,2471.043,13.3,0.025,234.5
2022-09-27T08:55:03,42.805,6.029,-0.036,0.007,0.041,99.0,101.0,99.0,13.4,1505.2,323.9,-0.8,1.8,2471.057,13.3,0.036,281.0
2022-09-27T08:58:03,42.805,6.029,-0.029,-0.002,0.029,100.0,100.0,99.0,13.4,1505.2,333.4,-0.8,1.8,2471.049,13.3,0.029,266.1
2022-09-27T09:04:03,42.805,6.029,-0.017,-0.008,0.006,99.0,99.0,100.0,13.4,1505.2,325.1,-0.7,1.8,2471.034,13.29,0.018,244.8
2022-09-27T09:07:03,42.805,6.029,-0.013,-0.029,-0.02,101.0,99.0,99.0,13.4,1505.2,321.9,-0.7,1.9,2471.08,13.29,0.031,204.1
2022-09-27T09:10:03,42.805,6.029,0.007,-0.047,-0.037,100.0,101.0,99.0,13.4,1505.2,315.4,-0.8,1.8,2471.044,13.29,0.047,171.5
2022-09-27T09:13:03,42.805,6.029,-0.019,-0.039,-0.005,100.0,100.0,100.0,13.3,1505.2,330.8,-0.8,1.8,2471.088,13.29,0.043,206.0
2022-09-27T09:16:03,42.805,6.029,-0.048,-0.027,-0.045,99.0,100.0,99.0,13.3,1505.2,320.3,-0.7,1.8,2471.049,13.3,0.055,240.6
2022-09-27T09:19:03,42.805,6.029,-0.023,-0.029,-0.027,100.0,100.0,101.0,13.3,1505.2,318.8,-0.8,1.8,2471.057,13.3,0.037,218.4
2022-09-27T09:22:03,42.805,6.029,-0.024,-0.023,0.001,98.0,100.0,101.0,13.4,1505.2,326.4,-0.8,1.8,2471.019,13.3,0.033,226.2
2022-09-27T09:25:03,42.805,6.029,-0.012,-0.02,-0.006,102.0,101.0,99.0,13.4,1505.2,319.9,-0.8,1.8,2471.034,13.3,0.023,211.0
2022-09-27T09:28:03,42.805,6.029,-0.028,-0.018,-0.011,101.0,101.0,99.0,13.3,1505.2,322.5,-0.8,1.8,2471.047,13.3,0.033,237.3
2022-09-27T09:31:03,42.805,6.029,-0.021,-0.024,-0.022,100.0,99.0,99.0,13.4,1505.2,333.4,-0.7,1.9,2470.981,13.3,0.031,221.2
2022-09-27T09:34:03,42.805,6.029,-0.041,-0.014,0.002,100.0,100.0,100.0,13.4,1505.2,322.7,-0.7,1.8,2471.0,13.3,0.043,251.1
2022-09-27T09:37:03,42.805,6.029,-0.022,-0.049,0.002,100.0,101.0,98.0,13.3,1505.2,323.2,-0.8,1.8,2471.038,13.3,0.053,204.2
2022-09-27T09:40:03,42.805,6.029,-0.026,-0.008,-0.011,99.0,101.0,99.0,13.3,1505.2,326.8,-0.7,1.8,2471.017,13.3,0.027,252.9
2022-09-27T09:43:03,42.805,6.029,-0.014,-0.005,0.02,100.0,100.0,100.0,13.4,1505.2,321.8,-0.8,1.8,2471.011,13.3,0.014,250.4
2022-09-27T09:46:03,42.805,6.029,-0.035,-0.002,0.004,102.0,101.0,99.0,13.4,1505.2,326.3,-0.7,1.8,2471.001,13.3,0.035,266.7
2022-09-27T09:49:03,42.805,6.029,-0.021,0.009,0.016,102.0,100.0,100.0,13.3,1505.2,329.4,-0.7,1.8,2471.003,13.3,0.022,293.2
2022-09-27T09:52:03,42.805,6.029,-0.003,-0.014,0.03,100.0,101.0,100.0,13.4,1505.2,319.1,-0.7,1.8,2471.017,13.3,0.014,192.1
2022-09-27T09:55:03,42.805,6.029,-0.031,0.0,0.028,101.0,102.0,98.0,13.3,1505.2,326.4,-0.8,1.8,2471.008,13.3,0.03,270.0
2022-09-27T09:58:03,42.805,6.029,-0.014,-0.023,0.011,101.0,99.0,100.0,13.3,1505.2,321.8,-0.7,1.8,2470.968,13.29,0.026,211.3